This demonstration page uses our WeatherBlox Daily Observations layout. Learn more.

40.92945, -100.16068

Hourly Observations for February 9, 2019

Temp ( °F °C ) Dew Point ( °F °C ) Humidity (%) Winds ( mph kmh ) Pressure ( in mb ) Visibility ( mi km ) Precip ( " mm )
12:15 am 00:15 Clear 18 -7.7 10 -12.5 69 69 SE 18 30 30.53 1034 10 16.0934 0 0
12:35 am 00:35 Clear 18 -7.7 10 -12.5 69 69 SE 18 30 30.52 1033 10 16.0934 0 0
12:55 am 00:55 Clear 19 -7.5 10 -12.5 68 68 SE 21 33 30.51 1033 10 16.0934 0 0
1:15 am 01:15 Clear 18 -7.7 10 -12.5 69 69 SE 22 35 30.49 1032 10 16.0934 0 0
1:35 am 01:35 Clear 18 -7.8 10 -12.2 71 71 SE 20 31 30.49 1032 10 16.0934 0 0
1:55 am 01:55 Clear 18 -8 10 -12.2 72 72 SE 20 31 30.48 1032 10 16.0934 0 0
2:15 am 02:15 Clear 18 -8 10 -12.1 73 73 SE 16 26 30.48 1032 10 16.0934 0 0
2:35 am 02:35 Clear 18 -8 10 -12.1 73 73 SE 17 28 30.47 1032 10 16.0934 0 0
2:55 am 02:55 Clear 18 -8 10 -12 73 73 SE 16 26 30.47 1032 10 16.0934 0 0
3:15 am 03:15 Clear 17 -8.3 10 -12 75 75 SE 13 20 30.47 1032 10 16.0934 0 0
3:35 am 03:35 Clear 17 -8.5 10 -12 76 76 SSE 16 26 30.47 1032 10 16.0934 0 0
3:55 am 03:55 Clear 17 -8.2 11 -11.8 76 76 SSE 17 28 30.46 1032 10 16.0934 0 0
4:15 am 04:15 Clear 17 -8.1 11 -11.7 76 76 SE 14 22 30.46 1032 10 16.0934 0 0
4:35 am 04:35 Clear 17 -8.2 11 -11.6 77 77 SSE 15 24 30.46 1032 10 16.0934 0 0
4:55 am 04:55 Clear 17 -8.2 11 -11.5 77 77 SE 14 22 30.47 1032 10 16.0934 0 0
5:15 am 05:15 Clear 17 -8.5 11 -11.5 79 79 SE 14 22 30.47 1032 10 16.0934 0 0
5:35 am 05:35 Clear 17 -8.5 11 -11.5 79 79 SSE 15 24 30.47 1032 10 16.0934 0 0
5:55 am 05:55 Clear 16 -8.7 11 -11.6 80 80 SSE 16 26 30.46 1031 10 16.0934 0 0
6:15 am 06:15 Clear 16 -9 11 -11.6 82 82 SSE 16 26 30.46 1032 10 16.0934 0 0
6:35 am 06:35 Clear 15 -9.2 11 -11.6 83 83 SSE 17 28 30.46 1032 10 16.0934 0 0
6:55 am 06:55 Clear 15 -9.3 11 -11.7 83 83 SSE 16 26 30.46 1032 10 16.0934 0 0
7:15 am 07:15 Clear 15 -9.2 11 -11.6 83 83 SSE 18 30 30.44 1031 10 16.0934 0 0
7:35 am 07:35 Clear 16 -9.1 11 -11.6 82 82 SSE 16 26 30.45 1031 10 16.0934 0 0
7:55 am 07:55 Sunny 16 -9.1 11 -11.7 82 82 SSE 15 24 30.45 1031 10 16.0934 0 0
8:15 am 08:15 Sunny 17 -8.5 11 -11.5 79 79 SSE 14 22 30.47 1032 10 16.0934 0 0
8:35 am 08:35 Sunny 17 -8.2 12 -11.3 79 79 SSE 15 24 30.45 1031 10 16.0934 0 0
8:55 am 08:55 Sunny 18 -7.7 12 -11 77 77 SSE 15 24 30.45 1031 10 16.0934 0 0
9:15 am 09:15 Sunny 19 -7.3 13 -10.6 78 78 SSE 17 28 30.44 1031 10 16.0934 0 0
9:35 am 09:35 Sunny 20 -6.5 14 -10.1 76 76 SSE 17 28 30.43 1031 10 16.0934 0 0
9:55 am 09:55 Sunny 21 -6 14 -10 74 74 S 17 28 30.43 1030 10 16.0934 0 0
10:15 am 10:15 Sunny 22 -5.4 15 -9.7 72 72 S 21 33 30.42 1030 10 16.0934 0 0
10:35 am 10:35 Sunny 24 -4.7 15 -9.3 71 71 S 20 31 30.42 1030 10 16.0934 0 0
10:55 am 10:55 Sunny 25 -3.8 16 -8.7 69 69 S 22 35 30.41 1030 10 16.0934 0 0
11:15 am 11:15 Sunny 26 -3.1 17 -8.4 67 67 S 20 31 30.39 1029 10 16.0934 0 0
11:35 am 11:35 Sunny 28 -2.3 18 -7.7 67 67 S 18 30 30.38 1029 10 16.0934 0 0
11:55 am 11:55 Sunny 29 -1.5 18 -7.6 64 64 S 20 31 30.36 1028 10 16.0934 0 0
12:15 pm 12:15 Sunny 30 -1 19 -7.3 63 63 S 20 31 30.36 1028 10 16.0934 0 0
12:35 pm 12:35 Sunny 31 -0.5 19 -7.2 61 61 S 20 31 30.34 1028 10 16.0934 0 0
12:55 pm 12:55 Sunny 32 -0.1 20 -6.7 61 61 S 21 33 30.32 1027 10 16.0934 0 0
1:15 pm 13:15 Sunny 32 0 20 -6.7 61 61 S 17 28 30.3 1026 10 16.0934 0 0
1:35 pm 13:35 Sunny 33 0.6 21 -6.1 61 61 S 17 28 30.28 1025 10 16.0934 0 0
1:55 pm 13:55 Sunny 34 1 20 -6.4 58 58 S 17 28 30.27 1025 10 16.0934 0 0
2:15 pm 14:15 Sunny 34 1.1 20 -6.4 58 58 S 14 22 30.27 1025 10 16.0934 0 0
2:35 pm 14:35 Sunny 34 1.1 20 -6.5 57 57 S 15 24 30.27 1025 10 16.0934 0 0
2:55 pm 14:55 Sunny 35 1.4 21 -6.3 57 57 S 15 24 30.25 1025 10 16.0934 0 0
3:15 pm 15:15 Sunny 34 1.3 20 -6.4 57 57 S 13 20 30.25 1025 10 16.0934 0 0
3:35 pm 15:35 Sunny 35 1.7 21 -6 57 57 SSE 13 20 30.25 1024 10 16.0934 0 0
3:55 pm 15:55 Sunny 35 1.7 21 -6.1 57 57 SE 9 15 30.24 1024 10 16.0934 0 0
4:15 pm 16:15 Sunny 36 2 21 -6 56 56 SE 10 17 30.23 1024 10 16.0934 0 0
4:35 pm 16:35 Sunny 36 2 21 -5.9 56 56 SE 12 19 30.24 1024 10 16.0934 0 0
4:55 pm 16:55 Sunny 35 1.7 21 -6.1 57 57 SE 10 17 30.24 1024 10 16.0934 0 0
5:15 pm 17:15 Sunny 35 1.5 22 -5.6 60 60 ESE 9 15 30.22 1023 10 16.0934 0 0
5:35 pm 17:35 Sunny 34 1.2 22 -5.5 61 61 ESE 8 13 30.23 1024 10 16.0934 0 0
6:15 pm 18:15 Clear 33 0.3 23 -5.1 67 67 E 9 15 30.21 1023 10 16.0934 0 0
6:35 pm 18:35 Clear 33 0.3 22 -5.4 66 66 E 10 17 30.21 1023 10 16.0934 0 0
6:55 pm 18:55 Clear 33 0.3 22 -5.6 65 65 ESE 12 19 30.21 1023 10 16.0934 0 0
7:15 pm 19:15 Clear 32 0.2 22 -5.5 66 66 ESE 10 17 30.22 1023 10 16.0934 0 0
7:35 pm 19:35 Clear 32 0.1 22 -5.6 66 66 ESE 10 17 30.23 1024 10 16.0934 0 0
7:55 pm 19:55 Clear 32 0 22 -5.6 66 66 ESE 10 17 30.23 1024 10 16.0934 0 0
8:15 pm 20:15 Clear 32 0 22 -5.6 66 66 ESE 10 17 30.22 1023 10 16.0934 0 0
8:35 pm 20:35 Clear 32 0 22 -5.6 66 66 E 10 17 30.22 1023 10 16.0934 0 0
8:55 pm 20:55 Clear 32 -0.2 22 -5.8 66 66 ESE 12 19 30.21 1023 10 16.0934 0 0
9:15 pm 21:15 Clear 32 -0.2 21 -6.1 65 65 ESE 14 22 30.19 1022 10 16.0934 0 0
9:35 pm 21:35 Clear 31 -0.5 20 -6.5 64 64 ESE 14 22 30.18 1022 10 16.0934 0 0
9:55 pm 21:55 Clear 31 -0.4 20 -6.9 62 62 ESE 13 20 30.19 1022 10 16.0934 0 0
10:15 pm 22:15 Clear 31 -0.4 19 -7.1 61 61 ESE 13 20 30.19 1022 10 16.0934 0 0
10:35 pm 22:35 Clear 31 -0.6 19 -7.2 61 61 ESE 13 20 30.17 1022 10 16.0934 0 0
10:55 pm 22:55 Clear 31 -0.8 19 -7.3 62 62 SE 14 22 30.17 1022 10 16.0934 0 0
11:15 pm 23:15 Clear 30 -1 19 -7.3 63 63 ESE 16 26 30.15 1021 10 16.0934 0 0
11:35 pm 23:35 Clear 30 -1.2 19 -7.2 64 64 SE 13 20 30.14 1021 10 16.0934 0 0
11:55 pm 23:55 Clear 30 -1.3 19 -7.3 64 64 SE 15 24 30.13 1020 10 16.0934 0 0

Powered by AerisWeather